Weather Roundup
Issued by NWS

Home | Current Version | Previous Version | Graphics & Text | Print | Product List | Glossary Off
Versions: 1 2 3 4 5 6 7 8 9 10 11 12 13 14 15 16 17 18 19 20 21 22 23 24 25 26 27 28 29 30 31 32 33 34 35 36 37 38 39 40 41 42 43 44 45 46 47 48 49 50

000
NZUS93 KARX 010510
HRRWXR

CURRENT HOURLY OBSERVATIONS ACROSS
MUCH OF THE UPPER MISSISSIPPI VALLEY
NATIONAL WEATHER SERVICE LA CROSSE WI
1200 AM CDT WED OCT 01 2014


...SOUTHEAST MINNESOTA...


CITY           SKY/WX    TMP DP  RH WIND       PRES   REMARKS
ROCHESTER      CLOUDY    49  44  83 SE12      29.93S
ROCHESTER/MAYO MOCLDY    49  43  79 E12       29.93S
WINONA         CLOUDY    48  43  81 SE7       29.97S
AUSTIN         CLOUDY    52  46  82 SE10      29.90S
ALBERT LEA     MOCLDY    54  48  82 SE13      29.88S
DODGE CENTER   CLOUDY    52  46  82 SE13      29.90F
PRESTON        CLOUDY    47  43  84 SE10      29.93F
OWATONNA       MOCLDY    54  46  76 SE13G22   29.87S
FARIBAULT      CLOUDY    54  48  82 SE13      29.88R
$$

...ELSEWHERE IN MINNESOTA...


CITY           SKY/WX    TMP DP  RH WIND       PRES   REMARKS
MINNEAPOLIS    CLOUDY    52  45  77 SE13      29.88R
INTNL FALLS    CLOUDY    45  40  82 SE14G20   29.85F
DULUTH         CLOUDY    47  45  93 SE12G20   29.94R
RED WING       CLOUDY    52  45  76 SE17      29.91S
REDWOOD FALLS  PTCLDY    59  56  89 SE16      29.78S
MANKATO        CLOUDY    55  46  71 SE14      29.84F
WORTHINGTON    CLOUDY    59  57  94 S14G20    29.80S
FAIRMONT       CLOUDY    57  52  82 SE16      29.82F
$$

...SOUTHWEST WISCONSIN...


CITY           SKY/WX    TMP DP  RH WIND       PRES   REMARKS
LA CROSSE      CLOUDY    49  43  80 SE10      29.97F
PRAIRIE DU CHI MOCLDY    48  42  79 SE8       29.97S
BOSCOBEL       MOCLDY    46  42  86 NE3       30.00F
LONE ROCK      PTCLDY    46  40  79 E6        30.01F
PLATTEVILLE    PTCLDY    47  44  90 E13       29.99F
FORT MC COY    MOCLDY    45  43  93 E7        29.99F
CAMP DOUGLAS   MOCLDY    41  41 100 SE5       30.02S
VIROQUA        FAIR      45  45 100 E9        29.97F
WIS DELLS      CLOUDY    44  42  94 E7        30.02S
$$

...ELSEWHERE IN WISCONSIN...


CITY           SKY/WX    TMP DP  RH WIND       PRES   REMARKS
MILWAUKEE      CLOUDY    51  49  92 NW6       30.04S
MADISON        CLOUDY    50  45  83 E10       30.02F
GREEN BAY      CLOUDY    48  46  93 CALM      30.06F
EAU CLAIRE     CLOUDY    47  41  80 SE14      29.96F
BLACK RVR FLS  FAIR      46  42  86 E5        29.99F
MEDFORD        CLOUDY    44  42  94 SE10      30.01R
WAUSAU         CLOUDY    45  42  89 SE9       30.02F
WIS RAPIDS     CLOUDY    47  43  86 SE8       30.04F
MARSHFIELD     CLOUDY    46  43  89 SE10      30.02S
RICE LAKE      CLOUDY    47  42  84 SE12G20   29.95F
$$

...NORTHEAST IOWA...


CITY           SKY/WX    TMP DP  RH WIND       PRES   REMARKS
DECORAH        CLOUDY    48  45  87 SE6       29.95R
MASON CITY     LGT RAIN  54  51  90 SE23G32   29.87F
CHARLES CITY   CLOUDY    52  46  82 SE10      29.93S
OELWEIN        CLOUDY    50  45  81 SE12G20   29.93F
$$

...ELSEWHERE IN IOWA...


CITY           SKY/WX    TMP DP  RH WIND       PRES   REMARKS
DES MOINES     CLOUDY    65  56  72 E9        29.84S
IOWA CITY      PTCLDY    54  49  83 E8        29.94S
FORT DODGE     CLOUDY    59  55  88 SE14G22   29.85R
$$

...NORTHERN ILLINOIS...


CITY           SKY/WX    TMP DP  RH WIND       PRES   REMARKS
CHICAGO-OHARE  CLOUDY    55  47  74 E8        30.01F
CHICAGO-MIDWAY CLOUDY    57  48  72 E9        30.01F
MOLINE         NOT AVBL
ROCKFORD       CLOUDY    53  46  77 E9        30.03F
PEORIA         CLEAR     56  47  71 E15       29.97S
$$

NOTE: "FAIR" INDICATES FEW OR NO CLOUDS BELOW 12,000 FEET WITH NO
SIGNIFICANT WEATHER AND/OR OBSTRUCTIONS TO VISIBILITY. WIND
SPEEDS ARE IN MILES-PER-HOUR.



USA.gov is the U.S. government's official web portal to all federal, state and local government web resources and services.